STARLINK-1423, 45710

Orbit data source: Space-Track

STARLINK-1423, 45710 is a payload satellite owned by SpaceX/Seattle (US) in LEO that was launched on Thu, 04 Jun 2020 UTC via an FALCON 9 launch vehicle from the Air Force Eastern Test Range (AFETR). Payload-class satellites include a variety of spacecraft equipped with specific instruments for various scientific and technological missions. These include communications satellites like Starlink; space stations such as the ISS; scientific satellites like the Hubble; Earth observation satellites from companies like Planet Labs, Umbra, and HawkEye 360; GPS; miniature CubeSats for education and research; and military/defense satellites.

Loading next visibility...
Identifier
45710, 2020-035BF
Orbit
LEO
Country
Flag of USUS
Related business
Manufacturer
SpaceX/Seattle
Mission
Operational Commercial Communications
Bus & Motor
STARLINK, Unknown motor
Mass
260 kg wet, ~248 kg dry
Launch date (UTC)
2020-06-04 (5 years ago)
Launch vehicle
FALCON 9
Launch site
Air Force Eastern Test Range (AFETR)
Object type
Payload
Rocket body
Debris
Shape & HBR
Box + 1 Pan, 10.1 m
Radar Cross Section
13.562 m², Large (>1 m²)

Expand to show TLE details & history
Last TLE update: 18 hours ago

TLE from 18 hours ago
0 STARLINK-1423
1 45710U 20035BF  25287.27272752 -.00000854  00000-0 -38427-4 0  9992
2 45710  53.0553 333.9148 0001524  84.5242 275.5921 15.06392619297087
Epoch: 2025-10-14T06:32Z
TLE epoch observation values (Epoch: 2025-10-14T06:32:43.657Z)
Latitude
-0.00002°
Longitude
-147.33065°
Altitude
548.011 km
Speed
7.589 km/s
True Right ascension
22h 15m 39s
True Declination
0° 00' 00"
Sunlit
Object was in full shadow at epoch
Visualization orbit readout
Latitude
Unknown
Longitude
Unknown
Altitude
Unknown
Speed
Unknown
Apparent Right ascension
Unknown
Apparent Declination
Unknown
Sunlit
N/A
Visualization observer readout
Local Sidereal Time
19:01:14
Azimuth
Unknown
Elevation
Unknown
Doppler factor
Unknown
Orbital elements
Apogee altitude
548.56 km
Perigee altitude
546.449 km
Semi-major axis
6,925.642 km
Eccentricity
0.00015
Inclination
53.0553°
RAAN
333.9148°
Arg. of periapsis
84.5242°
True anomaly
275.57472°
Mean anomaly
275.5921°
Eccentric anomaly
275.58341°
Mean motion
3.76576 °/min
Orbital period
95.6 mins
BSTAR
-0.000038427
Loading maneuver chart data...
Computing Atmospheric mass density...
Loading historical data...
Loading historical data...
Loading historical data...
Loading historical data...
Loading historical data...
Loading historical data...
Loading historical data...

Documentation

Showing up to 5 results
|